Location: Stilling
(56.0622°N, 9.9882°E)
Time: 00:31:26
(UTC+00:00)

Cosmos 2278 Rocket - Pass Details

Date: 13 July 2020
Orbit: 841 x 846 km, 71.0° (Epoch: 03 August)

Event Time Altitude Azimuth Distance (km) Brightness Sun altitude
Rises 20:46:21 0° 322° (NW) 3,418 8.4 -5.3°
Reaches altitude 10° 20:49:04 10° 312° (NW) 2,478 6.3 -5.5°
Maximum altitude 20:53:54 30° 254° (WSW) 1,481 3.7 -5.9°
Drops below altitude 10° 20:58:44 10° 195° (SSW) 2,460 4.2 -6.3°
Enters shadow 21:01:24 - 185° (S) 3,384 4.9 -6.5°
